TimeEDT,TemperatureF,Dew PointF,Humidity,Sea Level PressureIn,VisibilityMPH,Wind Direction,Wind SpeedMPH,Gust SpeedMPH,PrecipitationIn,Events,Conditions,WindDirDegrees,DateUTC
12:53 AM,64.0,55.0,73,29.99,10.0,Calm,Calm,-,N/A,,Clear,0,2013-07-11 04:53:00
1:53 AM,64.0,55.9,75,30.00,10.0,Calm,Calm,-,N/A,,Partly Cloudy,0,2013-07-11 05:53:00
2:53 AM,61.0,54.0,78,30.01,10.0,Calm,Calm,-,N/A,,Clear,0,2013-07-11 06:53:00
3:53 AM,63.0,55.0,75,30.01,10.0,WNW,3.5,-,N/A,,Clear,290,2013-07-11 07:53:00
4:53 AM,61.0,55.0,81,30.03,10.0,Calm,Calm,-,N/A,,Clear,0,2013-07-11 08:53:00
5:53 AM,61.0,55.0,81,30.04,10.0,Calm,Calm,-,N/A,,Clear,0,2013-07-11 09:53:00
6:53 AM,62.1,55.0,78,30.06,10.0,Calm,Calm,-,N/A,,Clear,0,2013-07-11 10:53:00
7:53 AM,64.9,57.0,75,30.06,10.0,NW,3.5,-,N/A,,Partly Cloudy,320,2013-07-11 11:53:00
8:53 AM,70.0,55.0,59,30.08,10.0,NW,5.8,-,N/A,,Partly Cloudy,310,2013-07-11 12:53:00
9:53 AM,73.9,53.1,48,30.08,10.0,NNW,9.2,-,N/A,,Partly Cloudy,340,2013-07-11 13:53:00
10:53 AM,77.0,53.1,43,30.07,10.0,NW,11.5,-,N/A,,Partly Cloudy,320,2013-07-11 14:53:00
11:53 AM,77.0,53.1,43,30.07,10.0,NW,15.0,-,N/A,,Partly Cloudy,320,2013-07-11 15:53:00
12:53 PM,78.1,53.1,42,30.07,10.0,WNW,11.5,-,N/A,,Scattered Clouds,300,2013-07-11 16:53:00
1:53 PM,78.1,54.0,43,30.06,10.0,NW,10.4,17.3,N/A,,Mostly Cloudy,320,2013-07-11 17:53:00
2:53 PM,81.0,54.0,39,30.06,10.0,North,4.6,-,N/A,,Scattered Clouds,10,2013-07-11 18:53:00
3:53 PM,81.0,53.1,38,30.06,10.0,North,6.9,-,N/A,,Scattered Clouds,360,2013-07-11 19:53:00
4:53 PM,79.0,53.1,40,30.06,10.0,ENE,6.9,-,N/A,,Scattered Clouds,70,2013-07-11 20:53:00
5:53 PM,81.0,51.1,35,30.05,10.0,ENE,8.1,-,N/A,,Scattered Clouds,60,2013-07-11 21:53:00
6:53 PM,80.1,54.0,40,30.05,10.0,East,6.9,-,N/A,,Partly Cloudy,80,2013-07-11 22:53:00
7:53 PM,79.0,54.0,42,30.05,10.0,ENE,3.5,-,N/A,,Partly Cloudy,60,2013-07-11 23:53:00
8:53 PM,75.9,54.0,46,30.05,10.0,NE,3.5,-,N/A,,Partly Cloudy,50,2013-07-12 00:53:00
9:53 PM,72.0,55.9,57,30.05,10.0,Calm,Calm,-,N/A,,Clear,0,2013-07-12 01:53:00
10:53 PM,69.1,57.0,65,30.06,10.0,Calm,Calm,-,N/A,,Clear,0,2013-07-12 02:53:00
11:53 PM,66.9,55.0,66,30.07,10.0,NNW,4.6,-,N/A,,Clear,340,2013-07-12 03:53:00